Retour au catalogue

CANX-2

ActifScienceSSO
NORAD 32790·PAYLOAD·🇨🇦 Canada

Lancé Apr 28, 2008 depuis Satish Dhawan Space Centre

Loading…

Prochains Passages (prochaines 24 heures)

TLE

FraisSource: Space-Track

Époque: Sep 14, 2026, 09:27 UTC

1 32790U 08021H   26257.39384319  .00002223  00000-0  15627-3 0  9997
2 32790  97.8739 238.9883 0011918 100.7148 259.5421 15.06142392998230

Suivez CANX-2 en temps réel avec AllMySat

Download on the App Store